Flag for Canada Weather past 2 weeks in Gatineau, Quebec, Canada

Now
25 °F

Scattered clouds.


Feels Like: 10 °F
Forecast: 6 / 24 °F
Wind: 22 mph from Northwest

Location: Ottawa Int'L. Ont.

Current Time: Mar 2, 2015 at 3:51:16 PM

Latest Report: Mar 2, 2015 at 3:00 PM


Visibility: 10 mi

Pressure: 30.13 "Hg

Humidity: 69%

Dew point: 16 °F

Location of GatineauLocation

Historic Weather in Gatineau — Graph

°F

Gatineau temperature yesterday

Maximum temperature yesterday: 25 °F (at 3:00 PM)
Minimum temperature yesterday: 3 °F (at 4:00 AM)
Average temperature yesterday: 14 °F

Past Weeks' High & Low Weather Summary

 TemperatureHumidityPressure
High27 °F (Mar 2, 1:00 PM)93% (Feb 22, 8:00 PM)30.74 "Hg (Feb 22, 8:00 PM)
Low-15 °F (Feb 16, 5:00 AM)32% (Feb 27, 3:00 PM)29.60 "Hg (Feb 25, 5:00 AM)
Average4 °F66%30.14 "Hg
* Reported Feb 15 2:00 PM — Mar 2 2:48 PM, Gatineau, Weather by CustomWeather, © 2015

Note: Actual official high and low records may vary slightly from our data, if they occured in-between our weather recording intervals... More about our weather records

Advertising

Gatineau weather history for previous 24 hours

 ConditionsComfort  
Time TempWeatherWind HumidityBarometerVisibility
2:48 PM
Mon, Mar 2
21 °FSnow flurries. Partly sunny.25 mph80%30.13 "Hg8 mi
2:00 PM25 °FBroken clouds.23 mph63%30.09 "Hg12 mi
1:00 PM27 °FPartly sunny.16 mph54%30.07 "Hg15 mi
12:00 PM25 °FBroken clouds.18 mph54%30.06 "Hg15 mi
11:00 AM25 °FLight snow. Partly sunny.20 mph63%30.06 "Hg10 mi
10:00 AM23 °FBroken clouds.14 mph74%30.05 "Hg10 mi
9:00 AM18 °FBroken clouds.9 mph79%30.06 "Hg15 mi
8:00 AM18 °FLight snow. Mostly cloudy.12 mph79%30.05 "Hg10 mi
7:00 AM14 °FPartly sunny.7 mph79%30.03 "Hg15 mi
6:00 AM18 °FMostly cloudy.5 mph68%30.03 "Hg15 mi
5:00 AM18 °FPassing clouds.10 mph68%30.03 "Hg15 mi
4:00 AM18 °FPassing clouds.10 mph73%30.01 "Hg15 mi
3:00 AM19 °FLight snow. Overcast.9 mph86%30.02 "Hg15 mi
2:00 AM19 °FLight snow. Overcast.8 mph93%30.05 "Hg6 mi
1:00 AM21 °FLight snow. Mostly cloudy.10 mph86%30.05 "Hg4 mi
12:00 AM19 °FMostly cloudy.8 mph86%30.06 "Hg15 mi
11:00 PM
Sun, Mar 1
19 °FPartly cloudy.6 mph86%30.08 "Hg15 mi
10:00 PM19 °FPassing clouds.6 mph86%30.10 "Hg15 mi
9:00 PM19 °FPassing clouds.7 mph86%30.12 "Hg15 mi
8:00 PM21 °FOvercast.7 mph80%30.14 "Hg15 mi
7:00 PM21 °FOvercast.9 mph80%30.16 "Hg15 mi
6:00 PM23 °FLight snow. Mostly cloudy.10 mph80%30.18 "Hg8 mi
5:00 PM23 °FLight snow. Overcast.12 mph80%30.20 "Hg10 mi
4:00 PM25 °FLight snow. Overcast.13 mph69%30.22 "Hg8 mi
3:00 PM25 °FOvercast.9 mph54%30.26 "Hg12 mi
Weather by CustomWeather, © 2015

See weather overviewHow to use our weather pages